Alabaster, AL

6:30 AM CST on November 13, 2019 (GMT -0600)
Shelby County

Weather History for KEET - October, 2019

Change the Weather History Date:

Tuesday, October 22, 2019

  Actual Average Record
Temperature  
Mean Temperature 58 °F 62 °F  
Max Temperature 72 °F 73 °F 84 °F (2000)
Min Temperature 44 °F 50 °F 28 °F (1976)
Degree Days  
Heating Degree Days 7 5  
Month to date heating degree days 43 60  
Since 1 July heating degree days 43 67  
Cooling Degree Days 0 2  
Month to date cooling degree days 169 66  
Year to date cooling degree days 2495 1950  
Growing Degree Days 12 (Base 50)    
Moisture  
Dew Point 50 °F    
Average Humidity 58    
Maximum Humidity 93    
Minimum Humidity 22    
Precipitation  
Precipitation T in 0.09 in 1.16 in (1959)
Month to date precipitation 0.84 2.08  
Year to date precipitation 34.71 43.99  
Snow  
Snow 0.00 in - - ()
Month to date snowfall 0.0  
Since 1 July snowfall 0.0  
Since 1 September snowfall 0.0  
Snow Depth 0.00 in    
Sea Level Pressure  
Sea Level Pressure 29.99 in    
Wind  
Wind Speed 7 mph (WNW)    
Max Wind Speed 16 mph    
Max Gust Speed 25 mph    
Visibility 9 miles    
Events Rain    
T = Trace of Precipitation, MM = Missing Value Source: NWS Daily Summary

Daily Weather History Graph

Daily Weather History Graph

Search for Another Location

Airport or City:

Astronomy

Oct. 22, 2019 Rise Set
Actual Time 6:56 AM CDT 6:05 PM CDT
Civil Twilight 6:31 AM CDT 6:31 PM CDT
Nautical Twilight 6:02 AM CDT 6:59 PM CDT
Astronomical Twilight 5:33 AM CDT 7:28 PM CDT
Moon 12:31 AM CDT (10/22) 2:51 PM CDT (10/22)
Length of Visible Light 11h 59m
Length of Day
11h 09m
Last Quarter, 37% of the Moon is Illuminated
Oct 22
Last Quarter
Oct 27
New
Nov 4
First Quarter
Nov 12
Full
Nov 19
Last Quarter

Hourly Weather History & Observations

Time (CDT) Temp. Dew Point Humidity Pressure Visibility Wind Dir Wind Speed Gust Speed Precip Events Conditions
12:13 AM 69.1 °F 68.0 °F 96% 29.88 in 5.0 mi Calm Calm - N/A   Overcast
12:53 AM 68.0 °F 66.9 °F 96% 29.87 in 1.2 mi West 10.4 mph 21.9 mph 0.16 in Rain Light Rain
1:01 AM 66.9 °F 66.9 °F 100% 29.89 in 1.5 mi NW 10.4 mph 21.9 mph 0.02 in Rain Rain
1:03 AM 66.9 °F 66.9 °F 100% 29.89 in 3.0 mi NNW 11.5 mph 20.7 mph 0.02 in Rain Light Rain
1:11 AM 66.0 °F 64.0 °F 93% 29.90 in 10.0 mi NW 11.5 mph 20.7 mph 0.02 in   Overcast
1:30 AM 64.9 °F 63.0 °F 93% 29.90 in 10.0 mi NW 5.8 mph - 0.02 in   Overcast
1:53 AM 64.9 °F 63.0 °F 93% 29.88 in 10.0 mi NW 4.6 mph - 0.02 in   Overcast
2:26 AM 64.0 °F 62.1 °F 93% 29.91 in 10.0 mi NW 10.4 mph - N/A   Overcast
2:53 AM 64.0 °F 62.1 °F 93% 29.90 in 10.0 mi WNW 9.2 mph - N/A   Overcast
3:43 AM 63.0 °F 61.0 °F 93% 29.94 in 10.0 mi WNW 5.8 mph - N/A   Overcast
3:53 AM 63.0 °F 60.1 °F 90% 29.93 in 10.0 mi WNW 12.7 mph - N/A   Mostly Cloudy
4:02 AM 62.1 °F 59.0 °F 90% 29.95 in 10.0 mi NW 11.5 mph 17.3 mph N/A   Scattered Clouds
4:53 AM 61.0 °F 55.0 °F 81% 29.95 in 10.0 mi NW 9.2 mph - N/A   Mostly Cloudy
5:53 AM 60.1 °F 54.0 °F 80% 29.97 in 10.0 mi NW 8.1 mph - N/A   Overcast
6:53 AM 57.0 °F 53.1 °F 87% 30.00 in 10.0 mi WNW 4.6 mph - N/A   Partly Cloudy
7:53 AM 57.0 °F 54.0 °F 89% 30.02 in 10.0 mi Calm Calm - N/A   Clear
8:53 AM 60.1 °F 53.1 °F 78% 30.04 in 10.0 mi West 3.5 mph - N/A   Clear
9:53 AM 63.0 °F 48.9 °F 60% 30.05 in 10.0 mi NW 5.8 mph - N/A   Clear
10:53 AM 66.9 °F 44.1 °F 44% 30.05 in 10.0 mi NW 8.1 mph - N/A   Clear
11:53 AM 69.1 °F 37.0 °F 31% 30.04 in 10.0 mi WNW 6.9 mph 18.4 mph N/A   Clear
12:53 PM 70.0 °F 30.0 °F 23% 30.03 in 10.0 mi WNW 15.0 mph 20.7 mph N/A   Clear
1:53 PM 71.1 °F 30.9 °F 23% 30.01 in 10.0 mi WNW 11.5 mph 17.3 mph N/A   Clear
2:53 PM 71.1 °F 30.0 °F 22% 30.01 in 10.0 mi WNW 12.7 mph - N/A   Clear
3:53 PM 70.0 °F 28.9 °F 22% 30.02 in 10.0 mi West 12.7 mph 18.4 mph N/A   Clear
4:53 PM 69.1 °F 33.1 °F 26% 30.02 in 10.0 mi West 8.1 mph 19.6 mph N/A   Clear
5:53 PM 64.9 °F 30.9 °F 28% 30.04 in 10.0 mi West 5.8 mph - N/A   Clear
6:53 PM 61.0 °F 33.1 °F 35% 30.06 in 10.0 mi WNW 5.8 mph - N/A   Clear
7:53 PM 57.9 °F 37.0 °F 46% 30.08 in 10.0 mi WNW 4.6 mph - N/A   Clear
8:53 PM 55.9 °F 39.0 °F 53% 30.10 in 10.0 mi WNW 4.6 mph - N/A   Clear
9:53 PM 52.0 °F 42.1 °F 69% 30.13 in 10.0 mi Calm Calm - N/A   Clear
10:53 PM 48.9 °F 41.0 °F 74% 30.14 in 10.0 mi Calm Calm - N/A   Clear